Indy South Greenwood (HFY)

 

Airport Diagram
No Airport Diagram Available
Current Weather/Forecast (VFR Conditions)
METAR KHFY 090035Z AUTO 10003KT 10SM BKN110 13/02 A3004 RMK AO2 T01250015
TAF

Airport Information

All Charts
General
Chart Name View
TAKEOFF MINIMUMS
ALTERNATE MINIMUMS

Departures
Chart Name Download
DAWNN ONE
DAWNN ONE, CONT.1
HOOSIER FIVE
MAREO FIVE
MEARZ SIX
MEARZ SIX, CONT.1
ROCKY ONE

Arrivals
Chart Name Download
RACYR FIVE

Approaches
Chart Name Download
RNAV (GPS) RWY 01
RNAV (GPS) RWY 19
VOR-A


Airport Statistics
Departures Arrivals Local
All Collected Stats since June 2016: 26 15 4
2021 Stats: 2 2 0
May Stats: 0 0 0

Inbound Traffic (Arrivals) - 0

No inbound traffic.


Outbound Traffic (Departures) - 0

No outbound traffic.


Local Traffic (Pattern) - 0

No local traffic.